KLM121 LSGG-EFHK

Flight info

Callsign KLM121
Flight time 2h 38m
Altitude 34000
Route SOSAL N871 KORED DCT BERSU DCT DITON/N0447F350 DCT LOKTA DCT TIKNI DCT ROBEL DCT TOPDI DCT BODLA DCT PENOR DCT ALAMI DCT OKEVU DCT EVADI Y370 DIVAM
Aircraft B738/M-SDE2E3FGHIRWXY/LB1

Departure

Time 2026-05-05 13:10
Airport Geneva International Airport (LSGG)

Arrival

Time 2026-05-05 15:49
Airport Helsinki Vantaa Airport (EFHK)
Time Latitude Longitude Altitude Speed Heading
2026-05-05 12:26 46.22951 6.10444 1391 ft 0 kts 134°
2026-05-05 13:00 46.22962 6.10430 1391 ft 3 kts 136°
2026-05-05 13:00 46.22976 6.10406 1385 ft 4 kts 104°
2026-05-05 13:01 46.22962 6.10357 1385 ft 2 kts 46°
2026-05-05 13:04 46.22975 6.10378 1384 ft 7 kts 46°
2026-05-05 13:04 46.23018 6.10442 1388 ft 11 kts 46°
2026-05-05 13:04 46.23083 6.10467 1384 ft 11 kts 322°
2026-05-05 13:05 46.23138 6.10391 1389 ft 11 kts 314°
2026-05-05 13:05 46.23201 6.10357 1390 ft 11 kts 26°
2026-05-05 13:05 46.23255 6.10432 1385 ft 12 kts 45°
2026-05-05 13:05 46.23322 6.10530 1386 ft 16 kts 45°
2026-05-05 13:06 46.23410 6.10652 1383 ft 19 kts 41°
2026-05-05 13:06 46.23517 6.10803 1379 ft 23 kts 46°
2026-05-05 13:06 46.23627 6.10966 1375 ft 22 kts 45°
2026-05-05 13:06 46.23735 6.11124 1378 ft 22 kts 45°
2026-05-05 13:07 46.23839 6.11277 1374 ft 21 kts 45°
2026-05-05 13:07 46.23941 6.11426 1375 ft 20 kts 45°
2026-05-05 13:07 46.24039 6.11571 1371 ft 20 kts 45°
2026-05-05 13:07 46.24134 6.11711 1367 ft 19 kts 45°
2026-05-05 13:08 46.24227 6.11846 1366 ft 19 kts 46°
2026-05-05 13:08 46.24313 6.11934 1366 ft 12 kts 354°
2026-05-05 13:08 46.24337 6.11857 1366 ft 9 kts 259°
2026-05-05 13:08 46.24322 6.11769 1367 ft 9 kts 256°
2026-05-05 13:09 46.24299 6.11654 1366 ft 16 kts 250°
2026-05-05 13:09 46.24202 6.11476 1372 ft 43 kts 225°
2026-05-05 13:09 46.23824 6.10924 1380 ft 110 kts 225°
2026-05-05 13:09 46.23152 6.09944 1406 ft 162 kts 225°
2026-05-05 13:10 46.22324 6.08709 1991 ft 169 kts 225°
2026-05-05 13:10 46.21509 6.07529 2931 ft 169 kts 224°
2026-05-05 13:10 46.20652 6.06252 3452 ft 190 kts 225°
2026-05-05 13:10 46.19687 6.04766 3666 ft 217 kts 226°
2026-05-05 13:11 46.18588 6.03081 3921 ft 245 kts 226°
2026-05-05 13:11 46.17399 6.01262 4704 ft 248 kts 225°
2026-05-05 13:11 46.16208 5.99420 5572 ft 253 kts 226°
2026-05-05 13:11 46.15007 5.97547 6496 ft 256 kts 226°
2026-05-05 13:12 46.13799 5.95669 7440 ft 254 kts 226°
2026-05-05 13:12 46.12588 5.93789 8323 ft 256 kts 225°
2026-05-05 13:12 46.11366 5.91884 8727 ft 258 kts 226°
2026-05-05 13:12 46.10488 5.89626 8905 ft 270 kts 255°
2026-05-05 13:13 46.10645 5.86893 8909 ft 284 kts 289°
2026-05-05 13:13 46.11846 5.84683 8921 ft 295 kts 321°
2026-05-05 13:13 46.13786 5.83662 8917 ft 305 kts 355°
2026-05-05 13:13 46.15880 5.84187 8945 ft 309 kts 18°
2026-05-05 13:14 46.17966 5.84934 8910 ft 309 kts
2026-05-05 13:14 46.20033 5.85821 8919 ft 312 kts 25°
2026-05-05 13:14 46.21725 5.87718 8900 ft 309 kts 57°
2026-05-05 13:14 46.22643 5.90476 9179 ft 304 kts 72°
2026-05-05 13:15 46.23405 5.93343 9892 ft 309 kts 72°
2026-05-05 13:15 46.24204 5.96281 10392 ft 324 kts 71°
2026-05-05 13:15 46.25074 5.99417 10585 ft 347 kts 71°
2026-05-05 13:15 46.25998 6.02720 11042 ft 360 kts 71°
2026-05-05 13:16 46.27093 6.06014 11703 ft 369 kts 56°
2026-05-05 13:16 46.28884 6.08687 12480 ft 372 kts 42°
2026-05-05 13:16 46.30830 6.11194 13229 ft 376 kts 43°
2026-05-05 13:16 46.32777 6.13755 13906 ft 381 kts 43°
2026-05-05 13:17 46.34736 6.16377 14548 ft 385 kts 44°
2026-05-05 13:17 46.36713 6.19023 15229 ft 388 kts 43°
2026-05-05 13:17 46.38725 6.21649 15898 ft 392 kts 43°
2026-05-05 13:17 46.40767 6.24300 16544 ft 395 kts 42°
2026-05-05 13:18 46.42809 6.26989 17213 ft 399 kts 43°
2026-05-05 13:18 46.44859 6.29732 17846 ft 404 kts 43°
2026-05-05 13:18 46.46927 6.32512 18523 ft 406 kts 43°
2026-05-05 13:18 46.48979 6.35266 19080 ft 410 kts 43°
2026-05-05 13:19 46.51080 6.38084 19653 ft 412 kts 44°
2026-05-05 13:19 46.53190 6.40917 20241 ft 415 kts 44°
2026-05-05 13:19 46.55188 6.43949 20756 ft 416 kts 58°
2026-05-05 13:19 46.56411 6.47701 21281 ft 410 kts 77°
2026-05-05 13:20 46.56816 6.51756 21909 ft 403 kts 94°
2026-05-05 13:20 46.56731 6.55828 22520 ft 403 kts 96°
2026-05-05 13:20 46.56591 6.59903 23067 ft 405 kts 97°
2026-05-05 13:20 46.56449 6.64006 23570 ft 408 kts 97°
2026-05-05 13:21 46.56322 6.68139 24000 ft 411 kts 96°
2026-05-05 13:21 46.56208 6.72308 24390 ft 415 kts 96°
2026-05-05 13:21 46.56103 6.76515 24770 ft 418 kts 96°
2026-05-05 13:21 46.55997 6.80749 25166 ft 421 kts 96°
2026-05-05 13:22 46.55933 6.85018 25555 ft 427 kts 90°
2026-05-05 13:22 46.56606 6.89270 25828 ft 440 kts 69°
2026-05-05 13:22 46.58219 6.93106 26091 ft 450 kts 53°
2026-05-05 13:22 46.60205 6.96644 26479 ft 453 kts 52°
2026-05-05 13:23 46.62228 7.00168 26836 ft 456 kts 51°
2026-05-05 13:23 46.64264 7.03731 27182 ft 459 kts 52°
2026-05-05 13:23 46.66297 7.07336 27518 ft 462 kts 52°
2026-05-05 13:23 46.68327 7.10980 27849 ft 465 kts 52°
2026-05-05 13:24 46.70363 7.14665 28178 ft 468 kts 52°
2026-05-05 13:24 46.72406 7.18376 28501 ft 471 kts 52°
2026-05-05 13:24 46.74461 7.22113 28808 ft 474 kts 53°
2026-05-05 13:24 46.76508 7.25836 29459 ft 468 kts 53°
2026-05-05 13:25 46.78551 7.29547 29749 ft 471 kts 53°
2026-05-05 13:25 46.80622 7.33292 29922 ft 476 kts 52°
2026-05-05 13:25 46.82711 7.37067 30096 ft 480 kts 52°
2026-05-05 13:25 46.84781 7.40815 30362 ft 481 kts 52°
2026-05-05 13:26 46.86873 7.44625 30706 ft 481 kts 52°
2026-05-05 13:26 46.88958 7.48446 31053 ft 481 kts 53°
2026-05-05 13:26 46.91038 7.52274 31340 ft 481 kts 53°
2026-05-05 13:26 46.93122 7.56116 31613 ft 482 kts 53°
2026-05-05 13:27 46.94524 7.58702 32020 ft 477 kts 53°
2026-05-05 13:27 46.97230 7.63696 32688 ft 472 kts 53°
2026-05-05 13:27 46.98609 7.66246 32789 ft 474 kts 53°
2026-05-05 13:27 47.00665 7.70051 32932 ft 478 kts 53°
2026-05-05 13:28 47.02732 7.73881 33152 ft 480 kts 53°
2026-05-05 13:28 47.04800 7.77716 33446 ft 480 kts 53°
2026-05-05 13:28 47.06869 7.81559 33757 ft 479 kts 53°
2026-05-05 13:28 47.08937 7.85404 33875 ft 482 kts 53°
2026-05-05 13:29 47.13104 7.93171 33882 ft 482 kts 54°
2026-05-05 13:29 47.16772 8.01159 33872 ft 470 kts 61°
2026-05-05 13:30 47.20158 8.09413 33876 ft 472 kts 61°
2026-05-05 13:30 47.23603 8.17666 33876 ft 474 kts 60°
2026-05-05 13:31 47.27090 8.25910 33873 ft 475 kts 60°
2026-05-05 13:31 47.31090 8.33659 33876 ft 478 kts 45°
2026-05-05 13:32 47.36413 8.39571 33872 ft 481 kts 33°
2026-05-05 13:32 47.42049 8.44873 33889 ft 481 kts 33°
2026-05-05 13:33 47.47681 8.50220 33880 ft 480 kts 33°
2026-05-05 13:33 47.53255 8.55610 33891 ft 478 kts 34°
2026-05-05 13:34 47.58804 8.61021 33869 ft 477 kts 34°
2026-05-05 13:34 47.64325 8.66421 33872 ft 474 kts 34°
2026-05-05 13:35 47.69818 8.71803 33870 ft 472 kts 35°
2026-05-05 13:35 47.75296 8.77183 33857 ft 470 kts 35°
2026-05-05 13:36 47.80744 8.82546 33840 ft 469 kts 35°
2026-05-05 13:36 47.86167 8.87899 33847 ft 467 kts 35°
2026-05-05 13:37 47.91577 8.93252 33828 ft 466 kts 36°
2026-05-05 13:37 47.96983 8.98617 33843 ft 466 kts 36°
2026-05-05 13:38 48.02337 9.03942 33849 ft 466 kts 36°
2026-05-05 13:38 48.07731 9.09322 33842 ft 467 kts 36°
2026-05-05 13:39 48.13132 9.14720 33846 ft 467 kts 36°
2026-05-05 13:39 48.18985 9.19018 33845 ft 472 kts 18°
2026-05-05 13:40 48.25415 9.21084 33842 ft 473 kts 11°
2026-05-05 13:40 48.31900 9.22868 33833 ft 474 kts 11°
2026-05-05 13:41 48.38389 9.24710 33846 ft 475 kts 12°
2026-05-05 13:41 48.44895 9.26621 33833 ft 477 kts 12°
2026-05-05 13:42 48.51421 9.28565 33832 ft 478 kts 12°
2026-05-05 13:42 48.57948 9.30516 33857 ft 478 kts 12°
2026-05-05 13:43 48.64438 9.32458 33858 ft 478 kts 12°
2026-05-05 13:43 48.70974 9.34418 33851 ft 478 kts 12°
2026-05-05 13:44 48.77507 9.36381 33856 ft 478 kts 12°
2026-05-05 13:44 48.84040 9.38350 33835 ft 478 kts 12°
2026-05-05 13:45 48.90567 9.40322 33841 ft 478 kts 12°
2026-05-05 13:45 48.97111 9.42306 33827 ft 480 kts 12°
2026-05-05 13:46 49.03664 9.44296 33825 ft 480 kts 12°
2026-05-05 13:46 49.10215 9.46292 33824 ft 480 kts 12°
2026-05-05 13:47 49.16754 9.48289 33827 ft 479 kts 11°
2026-05-05 13:47 49.23291 9.50292 33822 ft 479 kts 12°
2026-05-05 13:48 49.29820 9.52296 33816 ft 478 kts 12°
2026-05-05 13:48 49.36347 9.54307 33818 ft 478 kts 11°
2026-05-05 13:49 49.42873 9.56322 33821 ft 478 kts 11°
2026-05-05 13:49 49.49359 9.58330 33820 ft 479 kts 11°
2026-05-05 13:50 49.55889 9.60357 33815 ft 479 kts 11°
2026-05-05 13:50 49.62425 9.62392 33813 ft 479 kts 11°
2026-05-05 13:51 49.68966 9.64434 33820 ft 480 kts 11°
2026-05-05 13:51 49.75512 9.66483 33801 ft 480 kts 11°
2026-05-05 13:52 49.82062 9.68539 33799 ft 480 kts 11°
2026-05-05 13:52 49.88608 9.70599 33803 ft 480 kts 11°
2026-05-05 13:53 49.95158 9.72666 33798 ft 480 kts 11°
2026-05-05 13:53 50.01707 9.74739 33800 ft 480 kts 11°
2026-05-05 13:54 50.08257 9.76818 33807 ft 481 kts 10°
2026-05-05 13:54 50.14816 9.78906 33802 ft 481 kts 10°
2026-05-05 13:55 50.21380 9.81001 33796 ft 482 kts 10°
2026-05-05 13:55 50.27954 9.83106 33806 ft 482 kts 10°
2026-05-05 13:56 50.34527 9.85215 33803 ft 482 kts 10°
2026-05-05 13:56 50.40992 9.88047 33797 ft 484 kts 24°
2026-05-05 13:57 50.46718 9.93505 33814 ft 482 kts 37°
2026-05-05 13:57 50.52096 9.99813 33797 ft 483 kts 37°
2026-05-05 13:58 50.57486 10.06107 33806 ft 482 kts 37°
2026-05-05 13:58 50.62893 10.12340 33805 ft 482 kts 36°
2026-05-05 13:59 50.70971 10.21638 33807 ft 481 kts 36°
2026-05-05 14:00 50.78194 10.29996 33808 ft 481 kts 37°
2026-05-05 14:00 50.84457 10.37270 33818 ft 481 kts 37°
2026-05-05 14:01 50.89794 10.43630 33808 ft 480 kts 41°
2026-05-05 14:01 50.94319 10.51370 33826 ft 478 kts 50°
2026-05-05 14:02 50.98627 10.59415 33828 ft 478 kts 50°
2026-05-05 14:02 51.02944 10.67434 33837 ft 477 kts 50°
2026-05-05 14:03 51.07280 10.75416 33846 ft 477 kts 50°
2026-05-05 14:03 51.11626 10.83405 33851 ft 478 kts 49°
2026-05-05 14:04 51.15971 10.91420 33843 ft 478 kts 49°
2026-05-05 14:04 51.20314 10.99458 33839 ft 479 kts 49°
2026-05-05 14:05 51.24655 11.07520 33824 ft 479 kts 49°
2026-05-05 14:05 51.28996 11.15610 33837 ft 480 kts 49°
2026-05-05 14:06 51.33335 11.23720 33829 ft 481 kts 49°
2026-05-05 14:06 51.37650 11.31810 33834 ft 481 kts 49°
2026-05-05 14:07 51.41992 11.39978 33836 ft 482 kts 49°
2026-05-05 14:07 51.46329 11.48163 33833 ft 482 kts 49°
2026-05-05 14:08 51.50674 11.56389 33841 ft 483 kts 49°
2026-05-05 14:08 51.55010 11.64625 33833 ft 483 kts 49°
2026-05-05 14:09 51.59340 11.72876 33838 ft 483 kts 49°
2026-05-05 14:09 51.63661 11.81136 33845 ft 482 kts 49°
2026-05-05 14:10 51.67977 11.89414 33841 ft 482 kts 49°
2026-05-05 14:10 51.72290 11.97710 33841 ft 483 kts 49°
2026-05-05 14:11 51.76600 12.06034 33845 ft 483 kts 49°
2026-05-05 14:11 51.80902 12.14366 33844 ft 483 kts 49°
2026-05-05 14:12 51.85321 12.22533 33838 ft 482 kts 42°
2026-05-05 14:12 51.89408 12.28623 33847 ft 481 kts 39°
2026-05-05 14:13 51.94426 12.35790 33850 ft 481 kts 39°
2026-05-05 14:13 52.00226 12.44214 33847 ft 482 kts 39°
2026-05-05 14:14 52.05189 12.51555 33846 ft 482 kts 40°
2026-05-05 14:14 52.09333 12.57731 33881 ft 482 kts 40°
2026-05-05 14:15 52.14284 12.65131 33854 ft 483 kts 39°
2026-05-05 14:15 52.19201 12.72497 33851 ft 484 kts 40°
2026-05-05 14:16 52.24151 12.79933 33850 ft 484 kts 40°
2026-05-05 14:16 52.29099 12.87389 33849 ft 484 kts 40°
2026-05-05 14:17 52.34044 12.94865 33856 ft 484 kts 40°
2026-05-05 14:17 52.38984 13.02359 33844 ft 484 kts 40°
2026-05-05 14:18 52.43909 13.09853 33851 ft 483 kts 40°
2026-05-05 14:18 52.48822 13.17352 33856 ft 482 kts 40°
2026-05-05 14:19 52.53727 13.24862 33862 ft 482 kts 40°
2026-05-05 14:19 52.58624 13.32385 33855 ft 482 kts 40°
2026-05-05 14:20 52.63513 13.39920 33861 ft 481 kts 40°
2026-05-05 14:20 52.68390 13.47462 33862 ft 481 kts 40°
2026-05-05 14:21 52.73234 13.54974 33866 ft 480 kts 40°
2026-05-05 14:21 52.78093 13.62535 33870 ft 480 kts 40°
2026-05-05 14:22 52.82955 13.70126 33866 ft 481 kts 40°
2026-05-05 14:22 52.87810 13.77729 33860 ft 481 kts 40°
2026-05-05 14:23 52.92663 13.85356 33867 ft 481 kts 40°
2026-05-05 14:23 52.97524 13.93017 33875 ft 482 kts 40°
2026-05-05 14:24 53.02353 14.00654 33878 ft 483 kts 40°
2026-05-05 14:24 53.07211 14.08364 33877 ft 483 kts 40°
2026-05-05 14:25 53.12074 14.16106 33881 ft 484 kts 40°
2026-05-05 14:25 53.16933 14.23868 33887 ft 485 kts 40°
2026-05-05 14:26 53.21799 14.31666 33886 ft 485 kts 40°
2026-05-05 14:26 53.26670 14.39485 33882 ft 485 kts 39°
2026-05-05 14:27 53.32026 14.46175 33892 ft 479 kts 28°
2026-05-05 14:27 53.37658 14.52144 33919 ft 479 kts 27°
2026-05-05 14:28 53.43290 14.58139 33879 ft 480 kts 28°
2026-05-05 14:28 53.48889 14.64224 33898 ft 479 kts 28°
2026-05-05 14:29 53.54470 14.70360 33915 ft 479 kts 29°
2026-05-05 14:29 53.60065 14.76540 33940 ft 481 kts 29°
2026-05-05 14:30 53.65661 14.82741 33909 ft 481 kts 29°
2026-05-05 14:30 53.71212 14.88909 33905 ft 480 kts 29°
2026-05-05 14:31 53.76782 14.95116 33908 ft 479 kts 29°
2026-05-05 14:31 53.82344 15.01333 33933 ft 479 kts 29°
2026-05-05 14:32 53.87898 15.07561 33911 ft 478 kts 29°
2026-05-05 14:32 53.93438 15.13795 33899 ft 478 kts 29°
2026-05-05 14:33 53.98972 15.20041 33902 ft 477 kts 29°
2026-05-05 14:33 54.04492 15.26292 33935 ft 477 kts 29°
2026-05-05 14:34 54.10011 15.32561 33915 ft 477 kts 29°
2026-05-05 14:34 54.15539 15.38861 33930 ft 480 kts 29°
2026-05-05 14:35 54.18332 15.42049 34037 ft 485 kts 29°
2026-05-05 14:35 54.21134 15.45254 34298 ft 484 kts 30°
2026-05-05 14:35 54.23923 15.48454 34646 ft 482 kts 30°
2026-05-05 14:35 54.26701 15.51648 34959 ft 481 kts 30°
2026-05-05 14:36 54.32297 15.58088 34924 ft 486 kts 30°
2026-05-05 14:36 54.37879 15.64537 34901 ft 480 kts 30°
2026-05-05 14:37 54.43406 15.70945 34924 ft 479 kts 30°
2026-05-05 14:37 54.48931 15.77367 34911 ft 480 kts 30°
2026-05-05 14:38 54.54454 15.83808 34926 ft 479 kts 31°
2026-05-05 14:38 54.59971 15.90266 34919 ft 479 kts 31°
2026-05-05 14:39 54.65444 15.96693 34923 ft 479 kts 31°
2026-05-05 14:39 54.70951 16.03181 34924 ft 479 kts 31°
2026-05-05 14:40 54.76452 16.09684 34928 ft 479 kts 31°
2026-05-05 14:40 54.81949 16.16204 34922 ft 479 kts 31°
2026-05-05 14:41 54.87442 16.22742 34923 ft 479 kts 31°
2026-05-05 14:41 54.92931 16.29298 34923 ft 479 kts 31°
2026-05-05 14:42 54.98421 16.35875 34921 ft 479 kts 31°
2026-05-05 14:42 55.03904 16.42467 34921 ft 479 kts 32°
2026-05-05 14:43 55.09381 16.49075 34923 ft 479 kts 32°
2026-05-05 14:43 55.14858 16.55704 34923 ft 479 kts 32°
2026-05-05 14:44 55.20333 16.62354 34925 ft 480 kts 32°
2026-05-05 14:44 55.25807 16.69026 34922 ft 480 kts 32°
2026-05-05 14:45 55.31246 16.75678 34916 ft 479 kts 32°
2026-05-05 14:45 55.36712 16.82385 34899 ft 479 kts 32°
2026-05-05 14:46 55.42170 16.89107 34940 ft 479 kts 32°
2026-05-05 14:46 55.47625 16.95847 34919 ft 479 kts 32°
2026-05-05 14:47 55.53080 17.02611 34914 ft 479 kts 32°
2026-05-05 14:47 55.58528 17.09390 34910 ft 479 kts 32°
2026-05-05 14:48 55.63979 17.16175 34937 ft 479 kts 30°
2026-05-05 14:48 55.69685 17.22186 34915 ft 476 kts 25°
2026-05-05 14:49 55.75503 17.27786 34906 ft 476 kts 25°
2026-05-05 14:49 55.81315 17.33432 34904 ft 476 kts 25°
2026-05-05 14:50 55.87097 17.39169 34904 ft 476 kts 25°
2026-05-05 14:50 55.92866 17.44959 34911 ft 476 kts 26°
2026-05-05 14:51 55.98629 17.50773 34900 ft 476 kts 26°
2026-05-05 14:51 56.04390 17.56600 34900 ft 475 kts 26°
2026-05-05 14:52 56.10140 17.62434 34902 ft 475 kts 26°
2026-05-05 14:52 56.15888 17.68284 34904 ft 475 kts 26°
2026-05-05 14:53 56.21631 17.74149 34897 ft 474 kts 26°
2026-05-05 14:53 56.27361 17.80023 34899 ft 474 kts 26°
2026-05-05 14:54 56.33085 17.85910 34899 ft 473 kts 26°
2026-05-05 14:54 56.38798 17.91807 34906 ft 473 kts 26°
2026-05-05 14:55 56.44509 17.97722 34899 ft 473 kts 26°
2026-05-05 14:55 56.50214 18.03651 34894 ft 473 kts 26°
2026-05-05 14:56 56.55908 18.09591 34899 ft 472 kts 26°
2026-05-05 14:56 56.61597 18.15546 34915 ft 472 kts 26°
2026-05-05 14:57 56.67285 18.21519 34902 ft 472 kts 26°
2026-05-05 14:57 56.72972 18.27514 34895 ft 472 kts 26°
2026-05-05 14:58 56.78619 18.33487 34896 ft 473 kts 26°
2026-05-05 14:58 56.84306 18.39524 34917 ft 473 kts 26°
2026-05-05 14:59 56.89996 18.45586 34908 ft 474 kts 26°
2026-05-05 14:59 56.95697 18.51680 34896 ft 475 kts 26°
2026-05-05 15:00 57.00474 18.56805 34881 ft 475 kts 26°
2026-05-05 15:00 57.07112 18.63950 34900 ft 476 kts 26°
2026-05-05 15:01 57.12830 18.70131 34891 ft 478 kts 26°
2026-05-05 15:01 57.18562 18.76347 34890 ft 478 kts 26°
2026-05-05 15:02 57.24298 18.82591 34885 ft 479 kts 26°
2026-05-05 15:02 57.30042 18.88867 34885 ft 480 kts 26°
2026-05-05 15:03 57.34815 18.94099 34886 ft 480 kts 26°
2026-05-05 15:03 57.40557 19.00416 34882 ft 480 kts 26°
2026-05-05 15:04 57.46296 19.06753 34881 ft 480 kts 26°
2026-05-05 15:04 57.52029 19.13106 34882 ft 480 kts 26°
2026-05-05 15:05 57.60619 19.22668 34894 ft 480 kts 26°
2026-05-05 15:06 57.66343 19.29070 34886 ft 480 kts 26°
2026-05-05 15:06 57.72068 19.35497 34885 ft 480 kts 26°
2026-05-05 15:07 57.77788 19.41942 34888 ft 480 kts 26°
2026-05-05 15:07 57.83507 19.48410 34903 ft 481 kts 26°
2026-05-05 15:08 57.89239 19.54918 34892 ft 481 kts 26°
2026-05-05 15:08 57.94972 19.61451 34884 ft 482 kts 26°
2026-05-05 15:09 58.00712 19.68016 34880 ft 483 kts 26°
2026-05-05 15:09 58.06442 19.74596 34922 ft 483 kts 26°
2026-05-05 15:10 58.12159 19.81186 34886 ft 485 kts 26°
2026-05-05 15:10 58.17917 19.87848 34884 ft 486 kts 26°
2026-05-05 15:11 58.23682 19.94544 34884 ft 486 kts 26°
2026-05-05 15:11 58.29451 20.01270 34875 ft 487 kts 26°
2026-05-05 15:12 58.35226 20.08031 34873 ft 488 kts 26°
2026-05-05 15:12 58.41011 20.14828 34866 ft 489 kts 26°
2026-05-05 15:13 58.46796 20.21654 34864 ft 489 kts 26°
2026-05-05 15:13 58.52579 20.28503 34871 ft 489 kts 26°
2026-05-05 15:14 58.58359 20.35376 34897 ft 490 kts 26°
2026-05-05 15:14 58.64152 20.42290 34874 ft 490 kts 26°
2026-05-05 15:15 58.69939 20.49226 34862 ft 490 kts 26°
2026-05-05 15:15 58.75724 20.56187 34858 ft 490 kts 26°
2026-05-05 15:16 58.81501 20.63166 34895 ft 490 kts 26°
2026-05-05 15:16 58.87279 20.70181 34857 ft 490 kts 26°
2026-05-05 15:17 58.93012 20.77157 34857 ft 490 kts 26°
2026-05-05 15:17 58.98779 20.84204 34856 ft 490 kts 26°
2026-05-05 15:18 59.04296 20.92076 34859 ft 499 kts 40°
2026-05-05 15:18 59.08559 21.02838 34874 ft 507 kts 56°
2026-05-05 15:19 59.12153 21.14672 34849 ft 508 kts 57°
2026-05-05 15:19 59.15765 21.26505 34857 ft 508 kts 57°
2026-05-05 15:20 59.19429 21.38283 34859 ft 508 kts 56°
2026-05-05 15:20 59.21270 21.44193 34532 ft 513 kts 56°
2026-05-05 15:20 59.23119 21.50155 33996 ft 513 kts 56°
2026-05-05 15:20 59.24957 21.56114 33482 ft 511 kts 56°
2026-05-05 15:21 59.26778 21.62044 32998 ft 508 kts 57°
2026-05-05 15:21 59.28582 21.67936 32525 ft 502 kts 57°
2026-05-05 15:21 59.30361 21.73757 32082 ft 495 kts 57°
2026-05-05 15:21 59.32112 21.79495 31643 ft 487 kts 57°
2026-05-05 15:22 59.33832 21.85143 31284 ft 480 kts 57°
2026-05-05 15:22 59.35529 21.90728 30875 ft 474 kts 57°
2026-05-05 15:22 59.37194 21.96215 30483 ft 468 kts 57°
2026-05-05 15:22 59.38848 22.01677 30100 ft 463 kts 57°
2026-05-05 15:23 59.40483 22.07084 29685 ft 458 kts 57°
2026-05-05 15:23 59.42095 22.12431 29266 ft 454 kts 57°
2026-05-05 15:23 59.43705 22.17780 28898 ft 459 kts 57°
2026-05-05 15:23 59.45352 22.23260 28528 ft 473 kts 57°
2026-05-05 15:24 59.47032 22.28868 28064 ft 474 kts 57°
2026-05-05 15:24 59.48692 22.34430 27615 ft 468 kts 57°
2026-05-05 15:24 59.50324 22.39914 27224 ft 461 kts 57°
2026-05-05 15:24 59.51930 22.45320 26804 ft 455 kts 57°
2026-05-05 15:25 59.53510 22.50661 26424 ft 448 kts 57°
2026-05-05 15:25 59.55068 22.55947 26030 ft 443 kts 57°
2026-05-05 15:25 59.56603 22.61166 25647 ft 438 kts 57°
2026-05-05 15:25 59.58121 22.66339 25278 ft 434 kts 57°
2026-05-05 15:26 59.59627 22.71477 24902 ft 431 kts 57°
2026-05-05 15:26 59.61128 22.76612 24521 ft 434 kts 58°
2026-05-05 15:26 59.62653 22.81832 24172 ft 444 kts 58°
2026-05-05 15:26 59.64176 22.87061 23793 ft 444 kts 58°
2026-05-05 15:27 59.65704 22.92324 23387 ft 438 kts 58°
2026-05-05 15:27 59.67230 22.97594 22924 ft 433 kts 58°
2026-05-05 15:27 59.68695 23.02664 22531 ft 427 kts 58°
2026-05-05 15:27 59.70149 23.07725 22171 ft 420 kts 58°
2026-05-05 15:28 59.71578 23.12717 21800 ft 414 kts 58°
2026-05-05 15:28 59.72987 23.17651 21443 ft 408 kts 58°
2026-05-05 15:28 59.74377 23.22529 21065 ft 405 kts 58°
2026-05-05 15:28 59.75759 23.27383 20718 ft 403 kts 58°
2026-05-05 15:29 59.77154 23.32293 20368 ft 406 kts 58°
2026-05-05 15:29 59.78561 23.37250 20023 ft 417 kts 58°
2026-05-05 15:29 59.79984 23.42280 19633 ft 417 kts 58°
2026-05-05 15:29 59.81393 23.47276 19262 ft 412 kts 58°
2026-05-05 15:30 59.82783 23.52212 18887 ft 408 kts 59°
2026-05-05 15:30 59.84159 23.57109 18516 ft 403 kts 59°
2026-05-05 15:30 59.85519 23.61950 18148 ft 399 kts 58°
2026-05-05 15:30 59.86873 23.66735 17742 ft 395 kts 58°
2026-05-05 15:31 59.88196 23.71406 17366 ft 390 kts 58°
2026-05-05 15:31 59.89530 23.76131 17096 ft 380 kts 58°
2026-05-05 15:31 59.90787 23.80597 16947 ft 371 kts 58°
2026-05-05 15:31 59.91992 23.85107 16681 ft 369 kts 63°
2026-05-05 15:32 59.93034 23.89790 16373 ft 372 kts 66°
2026-05-05 15:32 59.94029 23.94612 16066 ft 380 kts 67°
2026-05-05 15:32 59.95024 23.99511 15729 ft 381 kts 67°
2026-05-05 15:32 59.96017 24.04366 15385 ft 376 kts 67°
2026-05-05 15:33 59.97008 24.09159 15041 ft 371 kts 67°
2026-05-05 15:33 59.97992 24.13878 14727 ft 366 kts 66°
2026-05-05 15:33 59.98969 24.18544 14409 ft 362 kts 66°
2026-05-05 15:33 59.99936 24.23153 14137 ft 358 kts 67°
2026-05-05 15:34 60.00894 24.27726 13787 ft 356 kts 67°
2026-05-05 15:34 60.01844 24.32265 13459 ft 352 kts 67°
2026-05-05 15:34 60.02783 24.36764 13096 ft 349 kts 67°
2026-05-05 15:34 60.03711 24.41217 12770 ft 345 kts 67°
2026-05-05 15:35 60.04626 24.45620 12459 ft 340 kts 67°
2026-05-05 15:35 60.05527 24.49964 12141 ft 336 kts 66°
2026-05-05 15:35 60.06416 24.54263 11839 ft 332 kts 66°
2026-05-05 15:35 60.07293 24.58502 11544 ft 327 kts 66°
2026-05-05 15:36 60.08157 24.62691 11237 ft 324 kts 66°
2026-05-05 15:36 60.09015 24.66862 10916 ft 325 kts 67°
2026-05-05 15:36 60.09886 24.71067 10617 ft 329 kts 65°
2026-05-05 15:36 60.11101 24.74976 10204 ft 334 kts 45°
2026-05-05 15:37 60.12664 24.78367 9941 ft 326 kts 42°
2026-05-05 15:37 60.14214 24.81610 9761 ft 317 kts 42°
2026-05-05 15:37 60.15724 24.84787 9448 ft 313 kts 42°
2026-05-05 15:37 60.17206 24.87943 9153 ft 308 kts 43°
2026-05-05 15:38 60.18651 24.91057 8912 ft 301 kts 43°
2026-05-05 15:38 60.20062 24.94122 8633 ft 296 kts 43°
2026-05-05 15:38 60.21442 24.97134 8382 ft 290 kts 44°
2026-05-05 15:38 60.22796 25.00102 8119 ft 285 kts 44°
2026-05-05 15:39 60.24120 25.03012 7881 ft 279 kts 44°
2026-05-05 15:39 60.25421 25.05874 7630 ft 275 kts 44°
2026-05-05 15:39 60.26685 25.08659 7379 ft 271 kts 44°
2026-05-05 15:39 60.27962 25.11475 7131 ft 267 kts 44°
2026-05-05 15:40 60.29191 25.14191 6888 ft 266 kts 44°
2026-05-05 15:40 60.30445 25.16961 6656 ft 269 kts 44°
2026-05-05 15:40 60.31714 25.19772 6402 ft 273 kts 44°
2026-05-05 15:40 60.32989 25.22605 6192 ft 269 kts 45°
2026-05-05 15:41 60.34221 25.25349 6073 ft 259 kts 45°
2026-05-05 15:41 60.35410 25.28001 5932 ft 250 kts 44°
2026-05-05 15:41 60.36550 25.30544 5854 ft 239 kts 44°
2026-05-05 15:41 60.37658 25.33013 5621 ft 235 kts 44°
2026-05-05 15:42 60.38752 25.35450 5428 ft 236 kts 44°
2026-05-05 15:42 60.39845 25.37887 5339 ft 228 kts 44°
2026-05-05 15:42 60.41043 25.39951 5136 ft 228 kts 16°
2026-05-05 15:42 60.42577 25.40262 5059 ft 228 kts 343°
2026-05-05 15:43 60.43959 25.38815 4772 ft 221 kts 311°
2026-05-05 15:43 60.44766 25.36275 4528 ft 212 kts 289°
2026-05-05 15:43 60.45246 25.33481 4276 ft 208 kts 287°
2026-05-05 15:43 60.45703 25.30727 4036 ft 205 kts 287°
2026-05-05 15:44 60.46049 25.27965 3784 ft 201 kts 270°
2026-05-05 15:44 60.45546 25.25435 3609 ft 199 kts 231°
2026-05-05 15:44 60.44588 25.23380 3382 ft 202 kts 231°
2026-05-05 15:44 60.43653 25.21318 3169 ft 194 kts 232°
2026-05-05 15:45 60.42770 25.19354 3021 ft 182 kts 232°
2026-05-05 15:45 60.41937 25.17460 2818 ft 184 kts 234°
2026-05-05 15:45 60.41097 25.15531 2578 ft 182 kts 232°
2026-05-05 15:45 60.40250 25.13656 2329 ft 177 kts 232°
2026-05-05 15:46 60.39434 25.11869 2073 ft 170 kts 231°
2026-05-05 15:46 60.38640 25.10133 1853 ft 172 kts 231°
2026-05-05 15:46 60.37834 25.08363 1597 ft 173 kts 232°
2026-05-05 15:46 60.37016 25.06571 1355 ft 169 kts 232°
2026-05-05 15:47 60.36255 25.04901 1102 ft 155 kts 230°
2026-05-05 15:47 60.35773 25.03845 987 ft 149 kts 230°
2026-05-05 15:47 60.34826 25.01765 696 ft 153 kts 231°
2026-05-05 15:47 60.34113 25.00193 517 ft 149 kts 233°
2026-05-05 15:48 60.33409 24.98674 327 ft 147 kts 230°
2026-05-05 15:48 60.32723 24.97188 182 ft 138 kts 232°
2026-05-05 15:48 60.32171 24.95930 170 ft 99 kts 227°
2026-05-05 15:48 60.31810 24.95133 170 ft 56 kts 227°
2026-05-05 15:49 60.31597 24.94663 170 ft 24 kts 223°
2026-05-05 15:49 60.31484 24.94593 170 ft 10 kts 161°
2026-05-05 15:49 60.31447 24.94639 170 ft 0 kts 141°
2026-05-05 15:50 60.31447 24.94641 170 ft 1 kts 141°
2026-05-05 15:50 60.31433 24.94664 170 ft 5 kts 139°
2026-05-05 15:50 60.31407 24.94740 170 ft 9 kts 104°
2026-05-05 15:50 60.31415 24.94829 170 ft 11 kts 60°
2026-05-05 15:51 60.31473 24.94959 170 ft 14 kts 47°
2026-05-05 15:51 60.31554 24.95137 170 ft 20 kts 47°
2026-05-05 15:51 60.31659 24.95366 170 ft 23 kts 47°
2026-05-05 15:51 60.31765 24.95600 170 ft 22 kts 47°
2026-05-05 15:52 60.31869 24.95827 170 ft 22 kts 47°
2026-05-05 15:52 60.31969 24.96048 170 ft 21 kts 48°
2026-05-05 15:52 60.32067 24.96264 170 ft 20 kts 47°
2026-05-05 15:52 60.32161 24.96472 170 ft 20 kts 48°
2026-05-05 15:53 60.32250 24.96666 170 ft 17 kts 47°
2026-05-05 15:53 60.32290 24.96864 170 ft 17 kts 133°
2026-05-05 15:53 60.32187 24.96968 170 ft 17 kts 153°
2026-05-05 15:53 60.32075 24.97083 170 ft 19 kts 153°
2026-05-05 15:54 60.31959 24.97199 171 ft 18 kts 153°
2026-05-05 15:54 60.31849 24.97314 171 ft 18 kts 153°
2026-05-05 15:54 60.31742 24.97425 171 ft 17 kts 153°
2026-05-05 15:54 60.31637 24.97477 171 ft 16 kts 224°
2026-05-05 15:55 60.31689 24.97329 171 ft 15 kts 337°
2026-05-05 15:55 60.31735 24.97262 171 ft 8 kts 270°
2026-05-05 15:55 60.31722 24.97203 171 ft 2 kts 240°
2026-05-05 15:55 60.31712 24.97166 171 ft 3 kts 242°
2026-05-05 15:56 60.31710 24.97157 171 ft 0 kts 242°